[[{"header":{"parameterUnit":"m.s-1","parameterCategory":2,"la1":30.2991,"la2":30.254,"lo1":-89.0895,"lo2":-89.0444,"dy":0.0017,"dx":0.0017,"nx":28,"ny":28,"refTime":"2024-10-13T03:00:00:Z","depth":"0","parameterNumber":2,"parameterNumberName":"U-component_of_CURRENTS"},"data":[0,0,0,0,0,0,0,0,0,0,0,0,0,0,0,0,0,0,0,0,0,0,0,0,0,0,0,0,0,0,0,0,0,0,0,0,0,0,0,0,0,0,0,0,0,0,0,0,0,0,0,0,0,0,0,0,0,0,0.2347,0.2346,0,0.2184,0.2181,0.2179,0.2073,0.2073,0.2074,0.2074,0.1845,0.1839,0.1833,0,0,0,0,0,0,0,0,0,0,0,0,0,0.2401,0.24,0.2347,0.2346,0.2345,0.2184,0.2181,0.2178,0.2073,0.2073,0.2074,0.2074,0.1847,0.184,0.1832,0,0,0,0,0,0,0,0,0,0,0,0,0,0.2313,0.24,0.2348,0.228,0.2273,0.2185,0.2181,0.2177,0.2073,0.2073,0.2074,0.2074,0.185,0.184,0.1831,0.1768,0,0,0.1803,0.1799,0,0,0,0,0,0,0,0,0.2319,0.231,0.2291,0.2284,0.2277,0.2157,0.2117,0.204,0.2073,0.2139,0.2074,0.2074,0.1949,0.1932,0.1888,0.1758,0.1748,0.1802,0.1796,0.1792,0.1789,0,0,0,0,0,0,0,0.2325,0.2316,0.2273,0.229,0.2281,0.2201,0.2189,0.21,0.2037,0.2134,0.2128,0.2124,0.1943,0.1898,0.1882,0.1744,0.1802,0.1794,0.1788,0.1784,0.1652,0.1654,0,0,0,0,0,0,0.2372,0.2323,0.2279,0.227,0.2309,0.2201,0.2187,0.2188,0.2039,0.2019,0.2124,0.212,0.1913,0.1893,0.1874,0.1868,0.1792,0.1783,0.1778,0.165,0.1653,0.1655,0,0,0,0,0,0,0.2374,0.237,0.2286,0.2299,0.2284,0.2202,0.2202,0.2185,0.2148,0.2034,0.2011,0.2108,0.1913,0.1887,0.1813,0.1856,0.1779,0.1771,0.1648,0.1651,0.1654,0.1808,0,0,0,0,0,0,0.2376,0.2371,0.2372,0.2303,0.2285,0.225,0.2202,0.2182,0.215,0.2142,0.2012,0.1991,0.1911,0.1828,0.1804,0.1842,0.1763,0.1645,0.1649,0.1653,0.18,0.1816,0.1829,0,0,0,0,0,0.2378,0.2375,0.2373,0.2367,0.2295,0.2252,0.2234,0.2169,0.2149,0.2136,0.2057,0.1995,0.1838,0.1821,0.1792,0.1829,0.1643,0.1648,0.1653,0.1793,0.1813,0.1829,0,0,0,0,0,0,0.2362,0.2363,0.2359,0.2347,0.2318,0.2238,0.2212,0.2182,0.2105,0.2096,0.1991,0.1964,0.1929,0.1854,0.1839,0.1808,0.1742,0.1742,0.1859,0.1876,0.1891,0.1859,0.1755,0,0,0,0,0,0.2375,0.2389,0.2366,0.2351,0.2349,0.2288,0.2259,0.2227,0.216,0.2126,0.2047,0.1973,0.1924,0.188,0.1816,0.177,0.1723,0.1787,0.1802,0.1815,0.1774,0.1784,0.1795,0.1671,0.1671,0.1671,0,0,0.2356,0.2364,0.2363,0.2353,0.232,0.2303,0.2268,0.2238,0.2216,0.2113,0.2052,0.2014,0.1926,0.1895,0.1874,0.1834,0.1833,0.1821,0.1832,0.1783,0.179,0.1802,0.1812,0.1674,0.1673,0.1673,0,0,0.2335,0.2348,0.2357,0.2352,0.2341,0.2311,0.2318,0.2266,0.2239,0.2189,0.2137,0.2118,0.2009,0.1973,0.1937,0.1987,0.1919,0.1992,0.2021,0.2035,0.2044,0.2052,0.204,0.2045,0.1991,0.1991,0.1992,0,0.2309,0.2324,0.2343,0.2352,0.2339,0.2327,0.2314,0.2288,0.2217,0.2192,0.219,0.2092,0.2044,0.2008,0.2043,0.2019,0.2002,0.1965,0.2054,0.206,0.2065,0.205,0.2054,0.1999,0.1998,0.1998,0.1997,0,0.2298,0.231,0.2312,0.2333,0.2324,0.2311,0.2306,0.229,0.2275,0.2243,0.2222,0.2178,0.2109,0.214,0.2095,0.2122,0.2093,0.2084,0.201,0.2087,0.2067,0.2068,0.2011,0.2008,0.2006,0.2004,0,0,0.2211,0.2292,0.2286,0.2298,0.2316,0.2297,0.2296,0.227,0.2246,0.2241,0.2204,0.22,0.219,0.215,0.2138,0.2162,0.2226,0.2142,0.214,0.2129,0.2241,0.2098,0.2085,0.2245,0.2245,0.2246,0.2223,0,0.218,0.2214,0.2253,0.2244,0.225,0.2263,0.2253,0.2239,0.2225,0.2193,0.2203,0.2164,0.2193,0.2175,0.2214,0.2194,0.223,0.223,0.2163,0.2159,0.2023,0.2082,0.1925,0.1879,0.2223,0.2223,0.2223,0,0.2132,0.2169,0.2181,0.2213,0.2213,0.2202,0.2178,0.2168,0.2151,0.2143,0.2139,0.2127,0.2135,0.2171,0.2195,0.2194,0.2224,0.224,0.2239,0.2033,0.2017,0.185,0.1867,0.1746,0.2224,0.2224,0.2224,0,0.2052,0.2097,0.2111,0.2121,0.2161,0.2148,0.2147,0.2137,0.2113,0.2097,0.2071,0.209,0.2068,0.2125,0.2149,0.2175,0.2177,0.2212,0.212,0.211,0.1915,0.1886,0.1791,0.2258,0.2258,0.2258,0.2258,0,0.1995,0.1986,0.2074,0.2074,0.2052,0.2095,0.2051,0.2054,0.204,0.1994,0.2031,0.1993,0.2061,0.2063,0.2125,0.2089,0.2156,0.2102,0.2089,0.1967,0.1944,0.1775,0.1759,0.2257,0.2257,0.2257,0.2257,0,0.1885,0.1957,0.1959,0.2012,0.2017,0.1991,0.1987,0.1955,0.196,0.1899,0.1888,0.1898,0.1889,0.1948,0.2004,0.2007,0.1931,0.2015,0.1845,0.181,0.1575,0.1574,0.1441,0.1425,0.1885,0.1881,0.1878,0,0.1829,0.1833,0.1892,0.1888,0.1903,0.1886,0.1868,0.1895,0.1862,0.1829,0.1787,0.1767,0.1738,0.1738,0.1744,0.1776,0.1791,0.1634,0.1652,0.1506,0.1499,0.1522,0.1524,0.1483,0.1477,0.1472,0.1468,0,0.1705,0.1738,0.1759,0.1769,0.176,0.1748,0.1729,0.1704,0.1716,0.1671,0.1613,0.1591,0.1556,0.1477,0.148,0.1494,0.1477,0.1527,0.1433,0.1196,0.1157,0.1152,0.1552,0.1423,0.1427,0.1431,0.1433,0.1435,0.1589,0.1587,0.1638,0.1637,0.1631,0.1612,0.1574,0.156,0.1512,0.1436,0.1455,0.1368,0.1255,0.1221,0.1212,0.1001,0.1179,0.0943,0.0965,0.101,0.0941,0.1209,0.1027,0.1029,0.1031,0.1033,0.1034,0,0.1456,0.1498,0.1496,0.1513,0.1481,0.1513,0.1479,0.143,0.1359,0.129,0.1228,0.1032,0.0871,0.0783,0.0543,0.0443,0.052,0.0406,0.0414,0.0463,0.0719,0.0641,0.0295,0.0295,0.0295,0.0295,0.0295,0.0295,0.1389,0.1387,0.1426,0.1378,0.1375,0.1313,0.1289,0.1222,0.1162,0.099,0.0852,0.0802,0.0555,0.0189,-0.0059,-0.0041,-0.0002,-0.0046,0.0072,0.0221,0.0274,0.0324,0.0245,-0.0178,-0.0179,-0.022,-0.0221,-0.0222]},{"header":{"parameterUnit":"m.s-1","parameterCategory":2,"la1":30.2991,"la2":30.254,"lo1":-89.0895,"lo2":-89.0444,"dy":0.0017,"dx":0.0017,"nx":28,"ny":28,"refTime":"2024-10-13T03:00:00:Z","depth":"0","parameterNumber":3,"parameterNumberName":"V-component_of_CURRENTS"},"data":[0,0,0,0,0,0,0,0,0,0,0,0,0,0,0,0,0,0,0,0,0,0,0,0,0,0,0,0,0,0,0,0,0,0,0,0,0,0,0,0,0,0,0,0,0,0,0,0,0,0,0,0,0,0,0,0,0,0,-0.0547,-0.0546,0,-0.0463,-0.0462,-0.0461,-0.0417,-0.0417,-0.0417,-0.0417,-0.043,-0.0431,-0.0431,0,0,0,0,0,0,0,0,0,0,0,0,0,-0.0602,-0.0602,-0.0547,-0.0546,-0.0545,-0.0463,-0.0461,-0.046,-0.0417,-0.0417,-0.0417,-0.0417,-0.043,-0.0431,-0.0431,0,0,0,0,0,0,0,0,0,0,0,0,0,-0.0554,-0.0602,-0.0547,-0.0514,-0.051,-0.0463,-0.0461,-0.046,-0.0417,-0.0417,-0.0417,-0.0417,-0.043,-0.043,-0.0431,-0.0435,0,0,-0.0433,-0.0433,0,0,0,0,0,0,0,0,-0.0557,-0.0552,-0.052,-0.0516,-0.0512,-0.0451,-0.0486,-0.0457,-0.0417,-0.0452,-0.0417,-0.0417,-0.0447,-0.0446,-0.0428,-0.0435,-0.0436,-0.0433,-0.0433,-0.0433,-0.0433,0,0,0,0,0,0,0,-0.056,-0.0555,-0.0513,-0.0519,-0.0514,-0.048,-0.0473,-0.0479,-0.0452,-0.0448,-0.0445,-0.0437,-0.0445,-0.0427,-0.0428,-0.0436,-0.0433,-0.0433,-0.0434,-0.0434,-0.0319,-0.0316,0,0,0,0,0,0,-0.0575,-0.0559,-0.0516,-0.0511,-0.0535,-0.0479,-0.0472,-0.047,-0.0449,-0.0445,-0.0437,-0.0435,-0.0426,-0.0427,-0.0428,-0.0361,-0.0433,-0.0434,-0.0434,-0.0322,-0.0318,-0.0315,0,0,0,0,0,0,-0.0577,-0.0573,-0.0519,-0.0533,-0.0523,-0.0479,-0.0476,-0.0468,-0.0449,-0.0439,-0.0437,-0.0426,-0.0426,-0.0428,-0.0401,-0.0364,-0.0434,-0.0435,-0.0326,-0.0321,-0.0316,-0.0272,0,0,0,0,0,0,-0.0579,-0.0574,-0.0579,-0.0534,-0.0523,-0.0497,-0.0476,-0.0467,-0.0444,-0.0441,-0.043,-0.0431,-0.0426,-0.04,-0.0401,-0.0366,-0.0435,-0.0331,-0.0324,-0.0318,-0.0278,-0.0266,-0.0256,0,0,0,0,0,-0.0582,-0.0589,-0.058,-0.0575,-0.0532,-0.0497,-0.0488,-0.0455,-0.0444,-0.0438,-0.0404,-0.0431,-0.0359,-0.0398,-0.0401,-0.0365,-0.0334,-0.0326,-0.0318,-0.0282,-0.0268,-0.0256,0,0,0,0,0,0,-0.0611,-0.0584,-0.0573,-0.0572,-0.054,-0.049,-0.0482,-0.0457,-0.0424,-0.0423,-0.0408,-0.0406,-0.0362,-0.0363,-0.0406,-0.0303,-0.0344,-0.0336,-0.0315,-0.0302,-0.0291,-0.0285,-0.0435,0,0,0,0,0,-0.0623,-0.0623,-0.0586,-0.0583,-0.0572,-0.0527,-0.051,-0.0486,-0.045,-0.0435,-0.0418,-0.0381,-0.033,-0.032,-0.0292,-0.0259,-0.0242,-0.0225,-0.0215,-0.0206,-0.0196,-0.0094,-0.0073,-0.029,-0.029,-0.029,0,0,-0.063,-0.0618,-0.0616,-0.0589,-0.0564,-0.0533,-0.0517,-0.0494,-0.0451,-0.0446,-0.0394,-0.0359,-0.0311,-0.0252,-0.0232,-0.0254,-0.0141,-0.0196,-0.019,-0.0184,-0.0084,-0.0063,-0.0044,-0.0284,-0.0285,-0.0286,0,0,-0.0639,-0.0639,-0.0637,-0.0612,-0.058,-0.0547,-0.0542,-0.0493,-0.046,-0.0411,-0.0365,-0.0296,-0.0264,-0.0188,-0.0151,-0.0064,-0.0087,-0.0062,-0.001,0.0089,0.0107,0.0123,0.0134,0.0151,-0.0057,-0.0056,-0.0056,0,-0.0651,-0.0637,-0.0629,-0.0612,-0.0582,-0.0553,-0.0522,-0.0482,-0.0424,-0.0377,-0.0394,-0.024,-0.0217,-0.0083,-0.0042,-0.0041,-0.0023,-0.0074,0.0101,0.0117,0.0133,0.0141,0.0159,-0.0053,-0.0054,-0.0054,-0.0054,0,-0.0646,-0.0631,-0.0627,-0.0592,-0.0563,-0.0537,-0.048,-0.0441,-0.0403,-0.0345,-0.023,-0.0166,-0.0069,-0.0037,-0.002,0.0124,0.0085,0.0097,0.0056,0.0157,0.0159,0.0176,-0.0049,-0.005,-0.0051,-0.0052,0,0,-0.067,-0.0631,-0.0628,-0.0596,-0.0548,-0.0515,-0.045,-0.0362,-0.0295,-0.0231,-0.0123,-0.0006,0.003,0.008,0.0128,0.0218,0.033,0.02,0.0204,0.0189,0.0488,0.0413,0.0424,0.037,0.0375,0.0378,0.0428,0,-0.0661,-0.0626,-0.0604,-0.0544,-0.051,-0.0458,-0.0392,-0.031,-0.024,-0.0139,-0.0031,0.0068,0.0076,0.0126,0.0227,0.0311,0.0386,0.0311,0.0412,0.0413,0.032,0.0448,0.0453,0.0496,0.0445,0.0448,0.045,0,-0.065,-0.0624,-0.0576,-0.0495,-0.0476,-0.0435,-0.0315,-0.0253,-0.0112,-0.0057,0.0064,0.0128,0.0279,0.0264,0.0454,0.04,0.0449,0.0502,0.0505,0.0437,0.0376,0.04,0.053,0.0556,0.0477,0.0475,0.0473,0,-0.0648,-0.0593,-0.0551,-0.0527,-0.0442,-0.0398,-0.0345,-0.0222,-0.0153,-0.0005,0.0056,0.0225,0.0303,0.0426,0.0508,0.0493,0.0687,0.068,0.0655,0.0646,0.0672,0.0659,0.0829,0.0825,0.0825,0.0825,0.0825,0,-0.0631,-0.0592,-0.055,-0.0522,-0.0452,-0.0397,-0.0302,-0.0227,-0.0109,-0.0016,0.0093,0.019,0.0353,0.0466,0.0541,0.0639,0.0712,0.0688,0.0686,0.0682,0.0669,0.0707,0.0713,0.0827,0.0826,0.0826,0.0826,0,-0.0621,-0.0599,-0.0544,-0.0473,-0.045,-0.0399,-0.0305,-0.0231,-0.0137,-0.0014,0.0028,0.0186,0.0324,0.045,0.0634,0.0661,0.0792,0.078,0.071,0.0701,0.0683,0.069,0.0851,0.0886,0.0774,0.0773,0.0772,0,-0.0606,-0.0585,-0.0524,-0.0493,-0.0462,-0.0393,-0.0339,-0.0248,-0.0178,-0.002,0.0041,0.0189,0.0308,0.0509,0.0616,0.073,0.0776,0.0753,0.0751,0.0709,0.0718,0.0731,0.0751,0.0787,0.0786,0.0786,0.0785,0,-0.0574,-0.0566,-0.0527,-0.0479,-0.0432,-0.0368,-0.0295,-0.0253,-0.0143,-0.0052,0.0073,0.0171,0.0352,0.05,0.0617,0.0678,0.0775,0.074,0.0779,0.0818,0.0773,0.0792,0.0652,0.078,0.0781,0.0781,0.0781,0.0782,-0.0553,-0.0529,-0.0496,-0.0448,-0.0402,-0.0343,-0.029,-0.022,-0.0129,0.0009,0.0074,0.0222,0.0392,0.0578,0.0638,0.0724,0.0747,0.075,0.0776,0.0803,0.0817,0.0604,0.0677,0.0676,0.0676,0.0676,0.0676,0,-0.0515,-0.0498,-0.0459,-0.0403,-0.0362,-0.0336,-0.0253,-0.0197,-0.0107,-0.0,0.0107,0.0297,0.0467,0.0606,0.0741,0.0776,0.0823,0.0793,0.0863,0.0895,0.0791,0.077,0.0769,0.0769,0.0769,0.0769,0.0769,0.0769,-0.0485,-0.0455,-0.0444,-0.0379,-0.0343,-0.0273,-0.0229,-0.0153,-0.0073,0.0067,0.018,0.0273,0.0424,0.0694,0.0824,0.0844,0.0932,0.0913,0.0954,0.0904,0.0903,0.0903,0.0888,0.0912,0.0912,0.1076,0.1077,0.1078]}],[{"header":{"parameterUnit":"m.s-1","parameterCategory":2,"la1":30.2991,"la2":30.254,"lo1":-89.0895,"lo2":-89.0444,"dy":0.0017,"dx":0.0017,"nx":28,"ny":28,"refTime":"2024-10-13T03:00:00:Z","depth":"2","parameterNumber":2,"parameterNumberName":"U-component_of_CURRENTS"},"data":[0,0,0,0,0,0,0,0,0,0,0,0,0,0,0,0,0,0,0,0,0,0,0,0,0,0,0,0,0,0,0,0,0,0,0,0,0,0,0,0,0,0,0,0,0,0,0,0,0,0,0,0,0,0,0,0,0,0,0.0434,0.0434,0,0.0432,0.0432,0.0433,0.0549,0.0551,0.0554,0.0556,0.0655,0.0655,0.0656,0,0,0,0,0,0,0,0,0,0,0,0,0,0.0583,0.058,0.0434,0.0434,0.0433,0.0432,0.0432,0.0433,0.0548,0.0551,0.0554,0.0558,0.0655,0.0655,0.0656,0,0,0,0,0,0,0,0,0,0,0,0,0,0.0548,0.0579,0.0434,0.0487,0.0492,0.0432,0.0432,0.0433,0.0547,0.0551,0.0555,0.0559,0.0655,0.0655,0.0656,0.0578,0,0,0.0656,0.0657,0,0,0,0,0,0,0,0,0.055,0.0543,0.048,0.0483,0.0488,0.049,0.0521,0.0485,0.0546,0.0531,0.0556,0.0561,0.0603,0.0608,0.0604,0.0583,0.0587,0.0656,0.0657,0.0657,0.0657,0,0,0,0,0,0,0,0.0552,0.0544,0.0438,0.0479,0.0484,0.0526,0.0525,0.0515,0.0551,0.0533,0.054,0.0531,0.0608,0.0604,0.0608,0.0588,0.0656,0.0657,0.0657,0.0657,0.0651,0.065,0,0,0,0,0,0,0.0535,0.0545,0.0438,0.0438,0.0524,0.0519,0.0519,0.049,0.0549,0.0559,0.0527,0.0536,0.0601,0.0607,0.0612,0.0636,0.0657,0.0657,0.0657,0.0651,0.0651,0.065,0,0,0,0,0,0,0.0538,0.0524,0.0438,0.049,0.0481,0.0512,0.0478,0.0487,0.0517,0.0543,0.0558,0.0552,0.0605,0.0611,0.0633,0.0637,0.0657,0.0657,0.0651,0.0651,0.065,0.0611,0,0,0,0,0,0,0.0541,0.0525,0.0509,0.0487,0.0477,0.0403,0.0474,0.0484,0.0501,0.0514,0.0567,0.0579,0.0608,0.0632,0.0633,0.0637,0.0658,0.0652,0.0651,0.0651,0.0613,0.061,0.0607,0,0,0,0,0,0.0546,0.0487,0.0507,0.0495,0.045,0.0401,0.04,0.044,0.0499,0.0489,0.0547,0.0579,0.0631,0.0631,0.0633,0.0637,0.0652,0.0651,0.0651,0.0615,0.061,0.0607,0,0,0,0,0,0,0.0536,0.0491,0.0515,0.0445,0.0432,0.042,0.0404,0.0442,0.0476,0.0506,0.056,0.0573,0.0595,0.0612,0.0613,0.0635,0.0651,0.065,0.0623,0.0619,0.0616,0.0634,0.0658,0,0,0,0,0,0.0523,0.0475,0.0451,0.0399,0.0388,0.0406,0.0399,0.0425,0.0442,0.0464,0.0505,0.0552,0.0579,0.0601,0.0615,0.0612,0.0665,0.0621,0.0617,0.0614,0.063,0.0717,0.0724,0.0648,0.0648,0.0648,0,0,0.0506,0.0473,0.045,0.0396,0.0392,0.0369,0.0413,0.039,0.0402,0.0464,0.0497,0.0531,0.0574,0.0586,0.0598,0.0611,0.0659,0.0614,0.0611,0.0629,0.0717,0.0725,0.0732,0.0647,0.0647,0.0648,0,0,0.0443,0.0417,0.037,0.0353,0.0333,0.0339,0.0337,0.0337,0.0371,0.038,0.0449,0.0493,0.0511,0.0562,0.0587,0.0569,0.0633,0.0571,0.0576,0.066,0.0668,0.0675,0.0733,0.0746,0.0577,0.0577,0.0577,0,0.0443,0.0378,0.035,0.0309,0.0311,0.033,0.0314,0.0318,0.0339,0.0376,0.0388,0.0478,0.0505,0.0568,0.0568,0.0564,0.0618,0.0587,0.0658,0.0667,0.0675,0.0733,0.0748,0.0575,0.0576,0.0576,0.0576,0,0.0351,0.0325,0.0288,0.0261,0.0247,0.0226,0.0234,0.0251,0.0297,0.0328,0.0391,0.043,0.0505,0.0506,0.053,0.0606,0.0625,0.0639,0.0671,0.0681,0.0741,0.0757,0.0572,0.0573,0.0574,0.0574,0,0,0.0333,0.025,0.0256,0.0263,0.0237,0.0227,0.0228,0.0258,0.031,0.0325,0.04,0.0436,0.049,0.0523,0.0566,0.0629,0.0715,0.0659,0.0665,0.0723,0.0896,0.0734,0.0737,0.0753,0.0756,0.0758,0.0907,0,0.0309,0.0246,0.0211,0.0205,0.0193,0.0212,0.0225,0.0257,0.0296,0.0358,0.0418,0.0486,0.0486,0.0542,0.06,0.0692,0.0761,0.0673,0.0874,0.0879,0.074,0.0751,0.062,0.0726,0.0923,0.0926,0.0928,0,0.0272,0.0242,0.022,0.0227,0.0228,0.0233,0.0306,0.0313,0.038,0.0416,0.0484,0.053,0.0622,0.0622,0.0786,0.0735,0.0819,0.0878,0.0885,0.0765,0.0748,0.0752,0.0749,0.0956,0.0954,0.0952,0.095,0,0.0322,0.0274,0.0276,0.027,0.0257,0.0289,0.0306,0.0356,0.0384,0.0472,0.0511,0.0612,0.068,0.0791,0.0868,0.0861,0.1037,0.1049,0.0984,0.0974,0.0915,0.0892,0.1187,0.1187,0.1187,0.1186,0.1186,0,0.0331,0.0343,0.0309,0.0314,0.0353,0.0337,0.0397,0.0426,0.0472,0.0511,0.056,0.0608,0.0731,0.0818,0.0902,0.0963,0.1071,0.099,0.1004,0.0889,0.0864,0.1108,0.1097,0.1192,0.1191,0.119,0.1189,0,0.0388,0.0358,0.0365,0.0364,0.0373,0.0411,0.0428,0.0461,0.0503,0.0556,0.0585,0.0645,0.0738,0.0827,0.1,0.0989,0.108,0.1086,0.091,0.0897,0.0964,0.095,0.105,0.1046,0.1042,0.1039,0.1036,0,0.04,0.0406,0.0412,0.0422,0.0427,0.0461,0.0479,0.0495,0.0507,0.0563,0.0585,0.0671,0.0709,0.0837,0.0833,0.092,0.1029,0.0849,0.0789,0.0948,0.0953,0.0944,0.0934,0.0718,0.0713,0.0709,0.0705,0,0.0433,0.0447,0.0449,0.0467,0.0489,0.0498,0.0515,0.052,0.0533,0.0564,0.0599,0.0635,0.0668,0.0636,0.0666,0.0706,0.0805,0.076,0.1035,0.0721,0.0632,0.0636,0.064,0.0669,0.0672,0.0675,0.0677,0.0678,0.0469,0.048,0.0483,0.0506,0.0521,0.0527,0.0535,0.0534,0.0545,0.0538,0.0564,0.0536,0.0517,0.0443,0.0469,0.0463,0.0546,0.0552,0.0568,0.0587,0.047,0.0373,0.0342,0.0343,0.0345,0.0346,0.0347,0,0.0488,0.0495,0.0511,0.052,0.0528,0.0549,0.0546,0.0519,0.0521,0.0477,0.0479,0.0314,0.0261,0.0275,0.0176,0.0174,0.0218,0.0201,0.0263,0.0295,0.0326,0.0199,-0.0002,-0.0002,-0.0003,-0.0003,0,0,0.0495,0.0503,0.0502,0.0512,0.0533,0.055,0.0553,0.0503,0.0451,0.034,0.0247,0.0209,0.0194,0.0061,0.0065,0.0027,0.0178,0.0018,0.0285,0.0388,0.0419,0.0496,0.0332,0,0,0,0,0]},{"header":{"parameterUnit":"m.s-1","parameterCategory":2,"la1":30.2991,"la2":30.254,"lo1":-89.0895,"lo2":-89.0444,"dy":0.0017,"dx":0.0017,"nx":28,"ny":28,"refTime":"2024-10-13T03:00:00:Z","depth":"2","parameterNumber":3,"parameterNumberName":"V-component_of_CURRENTS"},"data":[0,0,0,0,0,0,0,0,0,0,0,0,0,0,0,0,0,0,0,0,0,0,0,0,0,0,0,0,0,0,0,0,0,0,0,0,0,0,0,0,0,0,0,0,0,0,0,0,0,0,0,0,0,0,0,0,0,0,-0.0346,-0.0347,0,-0.0391,-0.0391,-0.0391,-0.0436,-0.0437,-0.0437,-0.0438,-0.048,-0.048,-0.0481,0,0,0,0,0,0,0,0,0,0,0,0,0,-0.0292,-0.0293,-0.0346,-0.0347,-0.0348,-0.0391,-0.0391,-0.0392,-0.0436,-0.0437,-0.0438,-0.0439,-0.048,-0.048,-0.0481,0,0,0,0,0,0,0,0,0,0,0,0,0,-0.0322,-0.0293,-0.0346,-0.0376,-0.038,-0.0391,-0.0391,-0.0392,-0.0436,-0.0437,-0.0438,-0.0439,-0.048,-0.048,-0.0481,-0.0462,0,0,-0.0483,-0.0483,0,0,0,0,0,0,0,0,-0.0321,-0.0324,-0.0371,-0.0374,-0.0378,-0.041,-0.0387,-0.0416,-0.0435,-0.0413,-0.0438,-0.0439,-0.0457,-0.0459,-0.0463,-0.0464,-0.0466,-0.0483,-0.0483,-0.0483,-0.0483,0,0,0,0,0,0,0,-0.0319,-0.0323,-0.0362,-0.0372,-0.0376,-0.0385,-0.039,-0.0393,-0.0426,-0.0415,-0.0418,-0.0426,-0.0458,-0.0462,-0.0464,-0.0466,-0.0483,-0.0483,-0.0484,-0.0484,-0.0534,-0.0535,0,0,0,0,0,0,-0.0316,-0.0321,-0.0361,-0.0364,-0.0354,-0.0385,-0.0391,-0.0397,-0.0426,-0.0433,-0.0425,-0.0428,-0.046,-0.0463,-0.0466,-0.0479,-0.0483,-0.0484,-0.0484,-0.0533,-0.0535,-0.0536,0,0,0,0,0,0,-0.0314,-0.0319,-0.0359,-0.0345,-0.0351,-0.0385,-0.0392,-0.0398,-0.0424,-0.0434,-0.044,-0.0447,-0.0461,-0.0465,-0.0497,-0.0479,-0.0484,-0.0485,-0.0532,-0.0534,-0.0535,-0.0483,0,0,0,0,0,0,-0.0313,-0.0318,-0.0325,-0.0344,-0.0351,-0.0369,-0.0391,-0.0398,-0.0426,-0.0431,-0.0455,-0.0459,-0.0462,-0.0496,-0.0497,-0.048,-0.0485,-0.0531,-0.0533,-0.0535,-0.0483,-0.0483,-0.0482,0,0,0,0,0,-0.031,-0.0318,-0.0325,-0.0331,-0.0359,-0.0369,-0.0373,-0.0401,-0.0426,-0.043,-0.0465,-0.046,-0.0509,-0.0497,-0.0499,-0.0481,-0.053,-0.0532,-0.0535,-0.0484,-0.0483,-0.0482,0,0,0,0,0,0,-0.0312,-0.0323,-0.0332,-0.0347,-0.0358,-0.0378,-0.039,-0.041,-0.0439,-0.0455,-0.0471,-0.0477,-0.0496,-0.0509,-0.0496,-0.0508,-0.0518,-0.0521,-0.0479,-0.0478,-0.0477,-0.0447,-0.0486,0,0,0,0,0,-0.0311,-0.0315,-0.0328,-0.0343,-0.0348,-0.0372,-0.0384,-0.0401,-0.0428,-0.0443,-0.0463,-0.0489,-0.0501,-0.0509,-0.0523,-0.0527,-0.05,-0.0522,-0.0521,-0.052,-0.05,-0.0459,-0.045,-0.0543,-0.0543,-0.0543,0,0,-0.0321,-0.0326,-0.0333,-0.0343,-0.0357,-0.0354,-0.0382,-0.0403,-0.0402,-0.0441,-0.0459,-0.0487,-0.0506,-0.0511,-0.052,-0.0521,-0.0479,-0.0522,-0.0521,-0.0501,-0.046,-0.045,-0.0441,-0.0544,-0.0544,-0.0544,0,0,-0.0331,-0.0342,-0.0343,-0.0343,-0.0358,-0.0361,-0.037,-0.0394,-0.0405,-0.0425,-0.0453,-0.0472,-0.0501,-0.0497,-0.0501,-0.0506,-0.0478,-0.0526,-0.0485,-0.0445,-0.0435,-0.0427,-0.0364,-0.035,-0.052,-0.052,-0.052,0,-0.0346,-0.0343,-0.0347,-0.0341,-0.0342,-0.0363,-0.0361,-0.0363,-0.0397,-0.04,-0.0428,-0.046,-0.048,-0.0463,-0.0473,-0.0494,-0.0469,-0.0479,-0.0438,-0.0429,-0.0421,-0.0359,-0.0344,-0.0518,-0.0518,-0.0518,-0.0519,0,-0.0343,-0.0344,-0.0346,-0.0335,-0.0332,-0.0339,-0.0333,-0.0339,-0.0362,-0.0365,-0.0372,-0.0399,-0.0416,-0.0426,-0.0451,-0.0411,-0.0409,-0.0439,-0.0426,-0.0407,-0.0345,-0.033,-0.0515,-0.0515,-0.0516,-0.0517,0,0,-0.0384,-0.035,-0.0358,-0.0343,-0.0331,-0.0331,-0.0312,-0.03,-0.0295,-0.031,-0.0296,-0.0316,-0.0338,-0.0346,-0.0373,-0.0339,-0.0263,-0.0368,-0.0367,-0.0278,-0.0156,-0.0139,-0.0122,-0.0288,-0.0286,-0.0284,-0.0127,0,-0.039,-0.0372,-0.0352,-0.0336,-0.0322,-0.0311,-0.0292,-0.028,-0.0278,-0.0266,-0.0263,-0.0271,-0.0303,-0.0323,-0.0288,-0.0282,-0.0227,-0.0301,-0.0211,-0.0207,-0.0172,-0.0105,-0.0152,-0.0016,-0.0113,-0.0111,-0.0109,0,-0.0398,-0.0379,-0.0366,-0.0323,-0.032,-0.0317,-0.0289,-0.0273,-0.024,-0.024,-0.0223,-0.0228,-0.0186,-0.0228,-0.014,-0.0192,-0.0164,-0.0143,-0.0138,-0.0127,-0.0164,-0.0058,0.0014,-0.0084,-0.0086,-0.0088,-0.009,0,-0.0419,-0.039,-0.038,-0.0369,-0.0326,-0.0327,-0.0314,-0.0284,-0.0266,-0.023,-0.0214,-0.0165,-0.0149,-0.0098,-0.0058,-0.0102,0.0054,-0.0003,0.0059,0.0061,0.004,0.0036,0.0086,0.0086,0.0086,0.0085,0.0085,0,-0.0422,-0.0412,-0.04,-0.0393,-0.0388,-0.0353,-0.0346,-0.0324,-0.0285,-0.0252,-0.0217,-0.017,-0.012,-0.0035,-0.0006,0.0093,0.0104,0.0104,0.0111,0.0055,0.0051,-0.0011,-0.0024,0.0091,0.009,0.0089,0.0088,0,-0.0433,-0.0425,-0.0412,-0.0396,-0.0398,-0.0402,-0.0379,-0.0361,-0.0323,-0.0274,-0.0261,-0.0158,-0.0036,0.0047,0.0152,0.0163,0.0247,0.0278,0.0224,0.0223,0.0217,0.0204,0.0371,0.0373,0.0375,0.0376,0.0377,0,-0.0421,-0.0423,-0.0437,-0.0446,-0.0448,-0.0448,-0.0444,-0.0404,-0.0373,-0.0262,-0.023,-0.0092,0.0033,0.0228,0.0272,0.0387,0.0353,0.0385,0.0288,0.0261,0.0251,0.0235,0.022,0.0289,0.029,0.029,0.029,0,-0.0399,-0.0432,-0.0431,-0.0465,-0.0482,-0.0471,-0.0459,-0.0436,-0.0367,-0.0296,-0.0165,-0.0047,0.0143,0.0265,0.0403,0.0435,0.0359,0.0395,0.0407,0.0211,0.0193,0.0179,0.0166,0.0293,0.0293,0.0293,0.0293,0.0293,-0.04,-0.041,-0.044,-0.0468,-0.0487,-0.0482,-0.0456,-0.0408,-0.0334,-0.0178,-0.0098,0.0101,0.0206,0.0423,0.0453,0.0432,0.0435,0.0395,0.039,0.0386,0.0335,0.0319,0.0437,0.0437,0.0438,0.0438,0.0439,0,-0.0382,-0.0406,-0.0428,-0.0455,-0.0468,-0.0488,-0.0445,-0.038,-0.0272,-0.0125,0.0035,0.0196,0.0348,0.0427,0.0391,0.0401,0.0354,0.0388,0.0309,0.0307,0.0305,0.0245,0.0326,0.0326,0.0326,0.0326,0,0,-0.0371,-0.0388,-0.04,-0.0422,-0.0449,-0.0433,-0.0404,-0.029,-0.0176,0.0002,0.0135,0.0363,0.0412,0.0388,0.0381,0.0331,0.0308,0.0319,0.0406,0.0308,0.0306,0.0308,0.0215,0,0,0,0,0]}],[{"header":{"parameterUnit":"m.s-1","parameterCategory":2,"la1":30.2991,"la2":30.254,"lo1":-89.0895,"lo2":-89.0444,"dy":0.0017,"dx":0.0017,"nx":28,"ny":28,"refTime":"2024-10-13T03:00:00:Z","depth":"4","parameterNumber":2,"parameterNumberName":"U-component_of_CURRENTS"},"data":[0,0,0,0,0,0,0,0,0,0,0,0,0,0,0,0,0,0,0,0,0,0,0,0,0,0,0,0,0,0,0,0,0,0,0,0,0,0,0,0,0,0,0,0,0,0,0,0,0,0,0,0,0,0,0,0,0,0,-0.0622,-0.0622,0,-0.0615,-0.0615,-0.0615,-0.0609,-0.0609,-0.061,-0.061,-0.0607,-0.0607,-0.0607,0,0,0,0,0,0,0,0,0,0,0,0,0,-0.0584,-0.0585,-0.0622,-0.0622,-0.0622,-0.0615,-0.0615,-0.0615,-0.0609,-0.0609,-0.061,-0.061,-0.0607,-0.0607,-0.0606,0,0,0,0,0,0,0,0,0,0,0,0,0,-0.059,-0.0586,-0.0622,-0.062,-0.0619,-0.0615,-0.0615,-0.0615,-0.0609,-0.0609,-0.061,-0.061,-0.0607,-0.0607,-0.0606,-0.0602,0,0,-0.0606,-0.0606,0,0,0,0,0,0,0,0,-0.059,-0.0591,-0.062,-0.062,-0.062,-0.0615,-0.0601,-0.0611,-0.0609,-0.0611,-0.061,-0.061,-0.0611,-0.061,-0.0606,-0.0602,-0.0602,-0.0606,-0.0606,-0.0605,-0.0605,0,0,0,0,0,0,0,-0.059,-0.0591,-0.0618,-0.062,-0.062,-0.0603,-0.0605,-0.0602,-0.0609,-0.0611,-0.0611,-0.0613,-0.061,-0.0607,-0.0606,-0.0602,-0.0606,-0.0606,-0.0605,-0.0605,-0.0639,-0.064,0,0,0,0,0,0,-0.0596,-0.0591,-0.0618,-0.0618,-0.0607,-0.0604,-0.0606,-0.0615,-0.0609,-0.0609,-0.0613,-0.0613,-0.0607,-0.0607,-0.0606,-0.0597,-0.0605,-0.0605,-0.0605,-0.0638,-0.0639,-0.064,0,0,0,0,0,0,-0.0595,-0.0599,-0.0618,-0.0605,-0.0606,-0.0605,-0.0615,-0.0615,-0.062,-0.0611,-0.061,-0.062,-0.0607,-0.0606,-0.0616,-0.0597,-0.0605,-0.0605,-0.0637,-0.0638,-0.064,-0.0581,0,0,0,0,0,0,-0.0594,-0.0599,-0.0611,-0.0606,-0.0608,-0.0622,-0.0615,-0.0614,-0.0621,-0.0621,-0.0617,-0.0616,-0.0607,-0.0617,-0.0616,-0.0597,-0.0605,-0.0635,-0.0637,-0.0639,-0.0582,-0.0581,-0.058,0,0,0,0,0,-0.0593,-0.0608,-0.0612,-0.0616,-0.0624,-0.0623,-0.0622,-0.062,-0.0621,-0.0625,-0.0626,-0.0616,-0.0629,-0.0617,-0.0616,-0.0596,-0.0634,-0.0637,-0.0639,-0.0582,-0.0581,-0.058,0,0,0,0,0,0,-0.0599,-0.0609,-0.0613,-0.0631,-0.0631,-0.0623,-0.0629,-0.0627,-0.063,-0.0633,-0.0625,-0.0624,-0.0629,-0.0635,-0.0622,-0.062,-0.0632,-0.0634,-0.059,-0.0588,-0.0587,-0.0548,-0.0605,0,0,0,0,0,-0.0607,-0.0623,-0.0624,-0.064,-0.0642,-0.0638,-0.064,-0.0636,-0.0636,-0.0638,-0.0637,-0.0641,-0.0637,-0.063,-0.064,-0.063,-0.0628,-0.0624,-0.0622,-0.0621,-0.0593,-0.0567,-0.0559,-0.0648,-0.0648,-0.0648,0,0,-0.0614,-0.0623,-0.0633,-0.0643,-0.0644,-0.0644,-0.0639,-0.0644,-0.0649,-0.0637,-0.0651,-0.0642,-0.0641,-0.0632,-0.0634,-0.0629,-0.0608,-0.0624,-0.0622,-0.0594,-0.0568,-0.0559,-0.055,-0.065,-0.0649,-0.0649,0,0,-0.0625,-0.0646,-0.0655,-0.0656,-0.0661,-0.0658,-0.0662,-0.066,-0.0667,-0.0674,-0.0665,-0.064,-0.0656,-0.0624,-0.0615,-0.0617,-0.0612,-0.0635,-0.0573,-0.0548,-0.0539,-0.0531,-0.0559,-0.0554,-0.0619,-0.0619,-0.0619,0,-0.0632,-0.0645,-0.0657,-0.066,-0.0668,-0.0666,-0.0671,-0.0675,-0.0677,-0.0666,-0.0683,-0.0647,-0.0644,-0.0591,-0.0581,-0.0606,-0.061,-0.0569,-0.0541,-0.0532,-0.0525,-0.0555,-0.055,-0.0617,-0.0617,-0.0617,-0.0618,0,-0.0638,-0.0651,-0.0658,-0.0666,-0.0678,-0.0681,-0.069,-0.0693,-0.0701,-0.0681,-0.0653,-0.0632,-0.0586,-0.0593,-0.0577,-0.0513,-0.0544,-0.0548,-0.0529,-0.0511,-0.0547,-0.0542,-0.0613,-0.0614,-0.0615,-0.0615,0,0,-0.0636,-0.0658,-0.0658,-0.0669,-0.0682,-0.0691,-0.0703,-0.0692,-0.0671,-0.0661,-0.0623,-0.0582,-0.0525,-0.0511,-0.0482,-0.0447,-0.0406,-0.0456,-0.0456,-0.0458,-0.0382,-0.0395,-0.0392,-0.0393,-0.0391,-0.0389,-0.0443,0,-0.0633,-0.0641,-0.0661,-0.0678,-0.0682,-0.0697,-0.0702,-0.0692,-0.0677,-0.0639,-0.0586,-0.0537,-0.051,-0.0461,-0.0415,-0.0415,-0.0384,-0.0393,-0.0422,-0.0423,-0.0412,-0.0382,-0.0383,-0.0439,-0.0438,-0.0438,-0.0437,0,-0.0619,-0.063,-0.0652,-0.0675,-0.068,-0.069,-0.0687,-0.0679,-0.0619,-0.06,-0.051,-0.0472,-0.0388,-0.0384,-0.0333,-0.0338,-0.0334,-0.0345,-0.0348,-0.0363,-0.0423,-0.0456,-0.0429,-0.0429,-0.043,-0.043,-0.0431,0,-0.0597,-0.0621,-0.0648,-0.0658,-0.0682,-0.0694,-0.0682,-0.0645,-0.0633,-0.0535,-0.0515,-0.041,-0.0381,-0.0331,-0.0343,-0.0319,-0.034,-0.0319,-0.0336,-0.0341,-0.0339,-0.0346,-0.0271,-0.0271,-0.0271,-0.027,-0.027,0,-0.0572,-0.0588,-0.0637,-0.0646,-0.0665,-0.0669,-0.0648,-0.0624,-0.0568,-0.0539,-0.0457,-0.0434,-0.0362,-0.0372,-0.0347,-0.0347,-0.0342,-0.0308,-0.0332,-0.0326,-0.0331,-0.0338,-0.0345,-0.0273,-0.0272,-0.0272,-0.0271,0,-0.0538,-0.0569,-0.0609,-0.0648,-0.0657,-0.0659,-0.0643,-0.0615,-0.0562,-0.0528,-0.0497,-0.0459,-0.0437,-0.0427,-0.04,-0.0382,-0.0371,-0.038,-0.0426,-0.0457,-0.0384,-0.0388,-0.0348,-0.0348,-0.0349,-0.0349,-0.0349,0,-0.052,-0.0539,-0.0615,-0.0644,-0.0666,-0.0656,-0.0648,-0.0603,-0.0585,-0.0555,-0.0559,-0.0528,-0.0497,-0.0478,-0.0458,-0.0425,-0.0412,-0.043,-0.0316,-0.0352,-0.038,-0.0384,-0.0388,-0.035,-0.035,-0.035,-0.035,0,-0.05,-0.0547,-0.0579,-0.0624,-0.0655,-0.0673,-0.0656,-0.0627,-0.0587,-0.0594,-0.0554,-0.0505,-0.0509,-0.0454,-0.0466,-0.0438,-0.0414,-0.0432,-0.0428,-0.0321,-0.0354,-0.0382,-0.0385,-0.0351,-0.0351,-0.0351,-0.0351,0,-0.0494,-0.0514,-0.0563,-0.0596,-0.0642,-0.065,-0.064,-0.0615,-0.0582,-0.0551,-0.0559,-0.0519,-0.0519,-0.0468,-0.0481,-0.0451,-0.0389,-0.0357,-0.0356,-0.0355,-0.0327,-0.0369,-0.037,0,0,0,0,0,-0.0473,-0.0474,-0.0519,-0.0546,-0.0591,-0.0623,-0.0642,-0.0631,-0.0612,-0.0574,-0.0542,-0.0522,-0.0463,-0.0457,-0.0411,-0.0472,-0.0404,-0.0421,-0.0371,-0.0357,-0.0355,-0.0319,0,0,0,0,0,0,-0.046,-0.0484,-0.0496,-0.0495,-0.0509,-0.0549,-0.0565,-0.0571,-0.0532,-0.0521,-0.0483,-0.0507,-0.0453,-0.047,-0.0402,-0.0403,-0.0364,-0.0416,-0.0415,-0.0357,-0.0356,-0.0355,-0.0317,0,0,0,0,0]},{"header":{"parameterUnit":"m.s-1","parameterCategory":2,"la1":30.2991,"la2":30.254,"lo1":-89.0895,"lo2":-89.0444,"dy":0.0017,"dx":0.0017,"nx":28,"ny":28,"refTime":"2024-10-13T03:00:00:Z","depth":"4","parameterNumber":3,"parameterNumberName":"V-component_of_CURRENTS"},"data":[0,0,0,0,0,0,0,0,0,0,0,0,0,0,0,0,0,0,0,0,0,0,0,0,0,0,0,0,0,0,0,0,0,0,0,0,0,0,0,0,0,0,0,0,0,0,0,0,0,0,0,0,0,0,0,0,0,0,0.034,0.034,0,0.0332,0.0332,0.0332,0.0323,0.0323,0.0323,0.0323,0.0347,0.0348,0.0348,0,0,0,0,0,0,0,0,0,0,0,0,0,0.0342,0.0342,0.034,0.034,0.034,0.0332,0.0332,0.0332,0.0323,0.0323,0.0323,0.0323,0.0347,0.0348,0.0348,0,0,0,0,0,0,0,0,0,0,0,0,0,0.0338,0.0342,0.034,0.0335,0.0334,0.0332,0.0332,0.0332,0.0323,0.0323,0.0323,0.0323,0.0346,0.0348,0.0349,0.0359,0,0,0.0352,0.0352,0,0,0,0,0,0,0,0,0.0338,0.0338,0.0336,0.0335,0.0334,0.0329,0.0341,0.0342,0.0323,0.0327,0.0323,0.0323,0.0344,0.0345,0.0343,0.036,0.0361,0.0352,0.0353,0.0353,0.0354,0,0,0,0,0,0,0,0.0339,0.0338,0.0337,0.0335,0.0335,0.0331,0.033,0.0341,0.0337,0.0327,0.0326,0.0326,0.0344,0.0342,0.0344,0.0361,0.0352,0.0353,0.0354,0.0354,0.0374,0.0373,0,0,0,0,0,0,0.034,0.0339,0.0337,0.0336,0.0336,0.0331,0.033,0.033,0.0336,0.0337,0.0326,0.0325,0.0341,0.0343,0.0345,0.034,0.0353,0.0354,0.0355,0.0374,0.0374,0.0373,0,0,0,0,0,0,0.0341,0.034,0.0337,0.0337,0.0337,0.0331,0.0332,0.033,0.0332,0.0335,0.0336,0.0328,0.0341,0.0343,0.0351,0.0342,0.0355,0.0356,0.0374,0.0374,0.0373,0.0341,0,0,0,0,0,0,0.0341,0.0341,0.0345,0.0338,0.0337,0.0337,0.0332,0.033,0.0331,0.0331,0.0338,0.0339,0.0341,0.035,0.0353,0.0343,0.0357,0.0374,0.0374,0.0374,0.0343,0.034,0.0338,0,0,0,0,0,0.0341,0.0343,0.0346,0.0346,0.0342,0.0337,0.0336,0.0331,0.0332,0.0332,0.0334,0.0339,0.035,0.0351,0.0354,0.0345,0.0374,0.0374,0.0374,0.0344,0.0341,0.0338,0,0,0,0,0,0,0.0347,0.0342,0.0345,0.0347,0.0344,0.0335,0.0337,0.0335,0.0336,0.0337,0.0341,0.0343,0.0343,0.0354,0.0354,0.035,0.0362,0.0362,0.0338,0.0335,0.0333,0.0338,0.0358,0,0,0,0,0,0.0352,0.0353,0.0348,0.0352,0.0351,0.0347,0.0346,0.0341,0.0339,0.0339,0.0345,0.0349,0.0344,0.0348,0.0351,0.0355,0.0353,0.0351,0.0349,0.0347,0.0353,0.0318,0.0313,0.0372,0.0372,0.0372,0,0,0.0354,0.0354,0.0354,0.0353,0.0352,0.0341,0.0346,0.0343,0.0341,0.0343,0.0348,0.0343,0.0344,0.0339,0.034,0.0347,0.0332,0.0346,0.0344,0.0352,0.0317,0.0311,0.0306,0.0372,0.0372,0.0372,0,0,0.0351,0.0362,0.0356,0.0351,0.0349,0.0345,0.0345,0.034,0.0349,0.0356,0.0343,0.0328,0.035,0.0325,0.0321,0.0311,0.0319,0.032,0.0314,0.0279,0.0274,0.0269,0.027,0.0266,0.0321,0.0321,0.0321,0,0.0352,0.0344,0.0354,0.0343,0.034,0.0345,0.0333,0.034,0.034,0.0342,0.036,0.0342,0.0338,0.0304,0.03,0.0303,0.0304,0.0321,0.0274,0.027,0.0265,0.0267,0.0263,0.0319,0.0319,0.0319,0.0319,0,0.0335,0.0329,0.0327,0.0315,0.0317,0.0308,0.0316,0.0325,0.0342,0.0339,0.0333,0.0324,0.0316,0.0301,0.0304,0.0263,0.0282,0.0271,0.0278,0.0257,0.0261,0.0257,0.0317,0.0317,0.0318,0.0318,0,0,0.0329,0.0315,0.0315,0.0308,0.0301,0.0302,0.0308,0.0307,0.0307,0.0316,0.0309,0.0291,0.0291,0.0286,0.0272,0.0238,0.0205,0.025,0.0249,0.0246,0.0161,0.0173,0.017,0.0187,0.0186,0.0185,0.0181,0,0.0309,0.0281,0.0289,0.0272,0.0254,0.0273,0.0283,0.0286,0.0298,0.0295,0.0284,0.0285,0.0286,0.029,0.025,0.0212,0.0192,0.021,0.0188,0.0188,0.0195,0.0163,0.0181,0.0178,0.0177,0.0176,0.0176,0,0.0285,0.0268,0.0256,0.0249,0.025,0.0278,0.0294,0.0298,0.0294,0.0301,0.0287,0.0283,0.0248,0.0258,0.0194,0.021,0.0196,0.0167,0.0166,0.0186,0.019,0.0201,0.0168,0.0168,0.0169,0.017,0.017,0,0.0266,0.0246,0.0245,0.024,0.0241,0.029,0.0318,0.0325,0.0327,0.0329,0.0317,0.0277,0.0276,0.0233,0.0202,0.0201,0.0131,0.0117,0.0116,0.0118,0.0124,0.0129,0.0077,0.0077,0.0077,0.0077,0.0077,0,0.0233,0.0223,0.0265,0.0262,0.0309,0.0318,0.0369,0.0383,0.0377,0.0351,0.0348,0.0291,0.0271,0.0229,0.0197,0.0152,0.0136,0.0115,0.0108,0.0114,0.0118,0.0122,0.0127,0.0077,0.0077,0.0077,0.0077,0,0.0207,0.0215,0.0217,0.0262,0.0312,0.0361,0.044,0.0433,0.0442,0.0409,0.0417,0.0322,0.0264,0.0248,0.0173,0.0155,0.0104,0.01,0.0137,0.0134,0.0119,0.0123,0.0085,0.0085,0.0085,0.0085,0.0085,0,0.0183,0.0189,0.0253,0.0301,0.0359,0.0441,0.0484,0.0499,0.0459,0.0391,0.0337,0.0301,0.0247,0.0158,0.0123,0.0108,0.0101,0.0107,0.0084,0.0117,0.0115,0.0119,0.0122,0.0085,0.0086,0.0086,0.0086,0,0.015,0.0194,0.0197,0.0307,0.0395,0.043,0.0485,0.0446,0.0408,0.0422,0.0287,0.0251,0.0181,0.0116,0.015,0.0109,0.0111,0.0108,0.0107,0.0085,0.0118,0.0116,0.0119,0.0086,0.0086,0.0086,0.0086,0,0.014,0.015,0.0197,0.03,0.0375,0.039,0.0417,0.0375,0.0348,0.0277,0.0217,0.0167,0.015,0.0111,0.0089,0.0114,0.0097,0.0098,0.0097,0.0096,0.0101,0.0143,0.0109,0,0,0,0,0,0.0137,0.0149,0.0204,0.0274,0.0332,0.0398,0.0382,0.0367,0.0329,0.0252,0.0247,0.0186,0.0152,0.0077,0.0104,0.0067,0.009,0.0094,0.009,0.0089,0.0088,0.0092,0,0,0,0,0,0,0.0128,0.0152,0.0174,0.0235,0.0293,0.0336,0.0323,0.0297,0.0226,0.0209,0.0171,0.0218,0.016,0.0181,0.0123,0.012,0.0119,0.0094,0.0094,0.0089,0.0088,0.0088,0.0092,0,0,0,0,0]}]]